Terug naar catalogus

TITAN 3C TRANSTAGE DEB

ActiefLEO
NORAD 1833·DEBRIS·🇺🇸 United States

Gelanceerd Oct 15, 1965 vanaf Cape Canaveral Space Force Station

Loading…

Volgende Passages (komende 24 uur)

TLE

VersSource: Space-Track

Epoch: Sep 14, 2026, 10:59 UTC

1 01833U 65082DY  26257.45805927  .00001896  00000-0  26524-3 0  9994
2 01833  32.2285  26.0252 0058033 231.3129 128.2320 14.74664363183134

Volg TITAN 3C TRANSTAGE DEB in realtime met AllMySat

Download on the App Store